SITRO-AIS 8 (ANOKHIN)

Last updated on Sun Apr 12 2026 00:03:55 GMT+0000 (Coordinated Universal Time)

1 57193U 23091AD 26101.49617799 .00012137 00000+0 41418-3 0 9996 2 57193 97.5111 166.1537 0009834 341.5965 18.4918 15.30438807154243
UTC large
Height (km)
Speed (km/s)
/
Latitude / Longitude
Inclination (degrees)
Orbital Period (minutes)
Azimuth
Elevation
Range (km)
Doppler Factor

Next 0 passes for location: London (51.5072 / 0.1276)

Sorry there are no passes over London.